Weather in Zarechensk

Russia / Murmansk Oblast     66°40′53″N   31°25′58″E
temp.,
°C
wind,
m/s
gust,
m/s
humid.,
%
clouds,
%
prec.,
mm/h
press.,
hPa
HPBL,
m
12 august, fri
fri1200:00+13w41064100 0.0 1007291
03:00+13w4106980 0.0 1009468
06:00+11w5107646 0.0 1010492
09:00+13w5967100 0.0 1011667
12:00+13wsw59699 0.1 1012692
15:00+16w51051100 0.1 10121605
18:00+16w611505 0.0 10141429
21:00+13wnw510585 0.0 1016426
13 august, sat
sat1300:00+9w35745 0.0 1017106
03:00+8w37780 0.0 1019182
06:00+8w387599 0.0 1019294
09:00+12wnw475787 0.0 1020716
12:00+14wnw3548100 0.0 1020964
15:00+15wnw344661 0.0 10201174
18:00+16wnw134884 0.0 10191270
21:00+12se226455 0.0 101936
14 august, sun
sun1400:00+10s11755 0.0 101830
03:00+9w348651 0.0 101882
06:00+9wsw35906 0.0 1018155
09:00+13w367750 0.0 1018468
12:00+17wsw356026 0.0 1017960
15:00+19wnw4650100 0.2 10161511
18:00+17nnw365798 0.0 1017803
21:00+13nnw117493 0.0 101811
15 august, mon
mon1500:00+11w117939 0.0 101910
03:00+10w118139 0.0 102012
06:00+11wsw008043 0.0 102111
09:00+14ese226522 0.0 1021281
12:00+17ese335429 0.0 1021634
15:00+19se3451100 0.0 1021743
18:00+18ese346087 0.0 1020300
21:00+13ne2284100 0.0 102031
16 august, tue
tue1600:00+12ene11915 0.0 102113
03:00+12ene119567 0.0 102112
06:00+13e119565 0.4 102018
09:00+16se1285100 0.4 1020163
12:00+22s355851 0.0 1019509
15:00+24ssw464880 0.0 10181060
18:00+23s3750100 0.0 1017375
21:00+19s2269100 0.0 101613